Location: Asheville, NC
(35.6000°N, 82.5500°W)
Time: 17:34:31

Vanguard 1 Rocket - Pass Details

Date: 14 March 2018
Orbit: 655 x 4222 km, 34.3° (Epoch: 19 March)

Event Time Altitude Azimuth Distance (km) Brightness Sun altitude
Rises 04:36:56 0° 272° (W) 7,764 - -37.3°
Reaches altitude 10° 04:47:59 10° 248° (WSW) 7,268 - -35.3°
Maximum altitude 04:56:00 12° 230° (SW) 7,198 - -33.8°
Drops below altitude 10° 05:04:13 10° 210° (SSW) 7,351 - -32.3°
Exits shadow 05:07:55 - 202° (SSW) 7,485 11.7 -31.6°
Sets 05:16:09 0° 186° (S) 7,910 11.9 -30.0°
